Regional Weather Roundup
Issued by NWS Columbia, SC

Home | Current Version | Previous Version | Text Only | Print | Product List | Glossary On
Versions: 1 2 3 4 5 6 7 8 9 10 11 12 13 14 15 16 17 18 19 20 21 22 23 24 25 26 27 28 29 30 31 32 33 34 35 36 37 38 39 40 41 42 43 44 45 46 47 48 49 50
000
ASUS42 KCAE 051210
RWRCAE
SOUTH CAROLINA REGIONAL WEATHER ROUNDUP
NATIONAL WEATHER SERVICE COLUMBIA SC
800 AM EDT SAT SEP 05 2015

Note: "fair" indicates few or no clouds below 12,000 feet with no
significant weather and/or obstructions to visibility.

SCZ003-006-007-009-010-051300-
UPSTATE

CITY           SKY/WX    TMP DP  RH WIND       PRES   REMARKS
ANDERSON       SUNNY     71  65  81 NE10      30.13R
6HR MIN TEMP:  67; 6HR MAX TEMP:  71;

CLEMSON        CLEAR     72  64  76 NE8       30.16R
6HR MIN TEMP:  69; 6HR MAX TEMP:  74;

GREENVILLE     SUNNY     70  64  81 NE12      30.16R
6HR MIN TEMP:  69; 6HR MAX TEMP:  70;

GREENWOOD      SUNNY     69  67  93 N5        30.14R FOG
6HR MIN TEMP:  68; 6HR MAX TEMP:  69;

GREER          SUNNY     69  65  86 N6        30.14R
6HR MIN TEMP:  68; 6HR MAX TEMP:  70;

ROCK HILL      SUNNY     71  67  87 NE5       30.15R FOG
6HR MIN TEMP:  69; 6HR MAX TEMP:  72;

$$

SCZ027-028-031-032-036-051300-
CENTRAL

CITY           SKY/WX    TMP DP  RH WIND       PRES   REMARKS
COLUMBIA APT   MOSUNNY   73  68  84 N6        30.09R
6HR MIN TEMP:  69; 6HR MAX TEMP:  73; 6HR PCP:  0.11;

COLUMBIA OWENS SUNNY     73  69  87 CALM      30.10R FOG
6HR MIN TEMP:  70; 6HR MAX TEMP:  73; 6HR PCP:  0.04;

MCENTIRE ANGB  SUNNY     71  69  92 NE8       30.09R
6HR MIN TEMP:  69; 6HR MAX TEMP:  71; 6HR PCP:  0.04;

ORANGEBURG     SUNNY     72  68  87 NE7       30.08R
6HR MIN TEMP:  70; 6HR MAX TEMP:  75; 6HR PCP:  0.01;

SUMTER SHAW    PTSUNNY   72  69  92 NE7       30.07R
6HR MIN TEMP:  70; 6HR MAX TEMP:  72;

$$

SCZ034-044-045-048-050-051300-
COAST

CITY           SKY/WX    TMP DP  RH WIND       PRES   REMARKS
CHARLESTON APT MOSUNNY   73  68  84 NE10      30.04S
6HR MIN TEMP:  72; 6HR MAX TEMP:  75;

BEAUFORT       MOSUNNY   74  69  85 NE8       30.06R
6HR MIN TEMP:  73; 6HR MAX TEMP:  76;

$$




USA.gov is the U.S. government's official web portal to all federal, state and local government web resources and services.